Time,TemperatureF,DewpointF,PressureIn,WindDirection,WindDirectionDegrees,WindSpeedMPH,WindSpeedGustMPH,Humidity,HourlyPrecipIn,Conditions,Clouds,dailyrainin,SoftwareType,DateUTC
2013-01-25 00:04:00,-999.0,-99.9,30.27,North,-999,-999.0,-999.0,-999,-99.99,,,0.00,weatherlink.com 1.10,2013-01-25 05:04:00,
2013-01-25 00:19:00,-999.0,-99.9,30.27,North,-999,-999.0,-999.0,-999,-99.99,,,0.00,weatherlink.com 1.10,2013-01-25 05:19:00,
2013-01-25 00:34:00,-999.0,-99.9,30.27,North,-999,-999.0,-999.0,-999,-99.99,,,0.00,weatherlink.com 1.10,2013-01-25 05:34:00,
2013-01-25 00:49:00,-999.0,-99.9,30.27,North,-999,-999.0,-999.0,-999,-99.99,,,0.00,weatherlink.com 1.10,2013-01-25 05:49:00,
2013-01-25 01:05:00,-999.0,-99.9,30.27,North,-999,-999.0,-999.0,-999,-99.99,,,0.00,weatherlink.com 1.10,2013-01-25 06:05:00,
2013-01-25 01:19:00,-999.0,-99.9,30.27,North,-999,-999.0,-999.0,-999,-99.99,,,0.00,weatherlink.com 1.10,2013-01-25 06:19:00,
2013-01-25 01:34:00,-999.0,-99.9,30.27,North,-999,-999.0,-999.0,-999,-99.99,,,0.00,weatherlink.com 1.10,2013-01-25 06:34:00,
2013-01-25 01:49:00,55.9,50.0,30.26,ESE,106,0.0,-999.0,81,-99.99,,,0.00,weatherlink.com 1.10,2013-01-25 06:49:00,
2013-01-25 02:04:00,55.6,50.0,30.26,ESE,104,0.0,-999.0,82,-99.99,,,0.00,weatherlink.com 1.10,2013-01-25 07:04:00,
2013-01-25 02:19:00,55.5,50.0,30.26,East,101,0.0,-999.0,82,-99.99,,,0.00,weatherlink.com 1.10,2013-01-25 07:19:00,
2013-01-25 02:34:00,56.2,51.0,30.26,ENE,68,0.0,-999.0,83,-99.99,,,0.00,weatherlink.com 1.10,2013-01-25 07:34:00,
2013-01-25 02:50:00,57.0,52.0,30.26,East,87,2.0,-999.0,83,-99.99,,,0.00,weatherlink.com 1.10,2013-01-25 07:50:00,
2013-01-25 03:05:00,57.9,52.0,30.26,East,84,0.0,-999.0,80,-99.99,,,0.00,weatherlink.com 1.10,2013-01-25 08:05:00,
2013-01-25 03:19:00,57.9,52.0,30.25,East,90,0.0,-999.0,80,-99.99,,,0.00,weatherlink.com 1.10,2013-01-25 08:19:00,
2013-01-25 03:35:00,57.4,52.0,30.25,ENE,78,0.0,-999.0,81,-99.99,,,0.00,weatherlink.com 1.10,2013-01-25 08:35:00,
2013-01-25 03:49:00,56.7,52.0,30.25,NE,45,2.0,-999.0,84,-99.99,,,0.00,weatherlink.com 1.10,2013-01-25 08:49:00,
2013-01-25 04:05:00,55.9,51.0,30.25,ENE,63,0.0,-999.0,84,-99.99,,,0.00,weatherlink.com 1.10,2013-01-25 09:05:00,
2013-01-25 04:19:00,55.3,51.0,30.25,NE,54,0.0,-999.0,85,-99.99,,,0.00,weatherlink.com 1.10,2013-01-25 09:19:00,
2013-01-25 04:34:00,54.8,51.0,30.25,NE,54,0.0,-999.0,86,-99.99,,,0.00,weatherlink.com 1.10,2013-01-25 09:34:00,
2013-01-25 04:49:00,54.6,51.0,30.25,ENE,61,0.0,-999.0,86,-99.99,,,0.00,weatherlink.com 1.10,2013-01-25 09:49:00,
2013-01-25 05:05:00,54.6,51.0,30.25,ENE,57,0.0,-999.0,87,-99.99,,,0.00,weatherlink.com 1.10,2013-01-25 10:05:00,
2013-01-25 05:19:00,54.5,50.0,30.25,NNE,28,0.0,-999.0,86,-99.99,,,0.00,weatherlink.com 1.10,2013-01-25 10:19:00,
2013-01-25 05:34:00,54.3,51.0,30.25,NE,49,0.0,-999.0,87,-99.99,,,0.00,weatherlink.com 1.10,2013-01-25 10:34:00,
2013-01-25 05:49:00,54.3,51.0,30.25,NE,45,0.0,-999.0,87,-99.99,,,0.00,weatherlink.com 1.10,2013-01-25 10:49:00,
2013-01-25 06:04:00,54.3,51.0,30.26,NE,53,3.0,-999.0,88,-99.99,,,0.00,weatherlink.com 1.10,2013-01-25 11:04:00,
2013-01-25 06:20:00,54.7,51.0,30.26,ENE,65,0.0,-999.0,87,-99.99,,,0.00,weatherlink.com 1.10,2013-01-25 11:20:00,
2013-01-25 06:35:00,54.7,51.0,30.27,ENE,68,0.0,-999.0,87,-99.99,,,0.00,weatherlink.com 1.10,2013-01-25 11:35:00,
2013-01-25 06:49:00,54.7,51.0,30.27,East,82,0.0,-999.0,88,-99.99,,,0.00,weatherlink.com 1.10,2013-01-25 11:49:00,
2013-01-25 07:05:00,54.7,51.0,30.27,ENE,69,0.0,-999.0,88,-99.99,,,0.00,weatherlink.com 1.10,2013-01-25 12:05:00,
2013-01-25 07:19:00,54.6,52.0,30.27,NNE,31,1.0,-999.0,89,-99.99,,,0.00,weatherlink.com 1.10,2013-01-25 12:19:00,
2013-01-25 07:34:00,54.6,52.0,30.28,NE,43,0.0,-999.0,89,-99.99,,,0.00,weatherlink.com 1.10,2013-01-25 12:34:00,
2013-01-25 07:50:00,55.3,52.0,30.28,ENE,67,2.0,-999.0,89,-99.99,,,0.00,weatherlink.com 1.10,2013-01-25 12:50:00,
2013-01-25 08:05:00,56.5,53.0,30.28,ENE,65,0.0,-999.0,88,-99.99,,,0.00,weatherlink.com 1.10,2013-01-25 13:05:00,
2013-01-25 08:19:00,58.0,54.0,30.28,ENE,59,0.0,-999.0,86,-99.99,,,0.00,weatherlink.com 1.10,2013-01-25 13:19:00,
2013-01-25 08:34:00,59.5,55.0,30.28,ENE,65,0.0,-999.0,84,-99.99,,,0.00,weatherlink.com 1.10,2013-01-25 13:34:00,
2013-01-25 08:50:00,61.3,55.0,30.29,NNE,19,0.0,-999.0,81,-99.99,,,0.00,weatherlink.com 1.10,2013-01-25 13:50:00,
2013-01-25 09:04:00,62.3,55.0,30.29,ENE,73,1.0,-999.0,78,-99.99,,,0.00,weatherlink.com 1.10,2013-01-25 14:04:00,
2013-01-25 09:19:00,63.5,56.0,30.29,ENE,63,0.0,-999.0,76,-99.99,,,0.00,weatherlink.com 1.10,2013-01-25 14:19:00,
2013-01-25 09:34:00,64.7,55.0,30.30,ENE,62,1.0,-999.0,72,-99.99,,,0.00,weatherlink.com 1.10,2013-01-25 14:34:00,
2013-01-25 09:49:00,65.5,55.0,30.30,East,80,2.0,-999.0,70,-99.99,,,0.00,weatherlink.com 1.10,2013-01-25 14:49:00,
2013-01-25 10:19:00,68.0,54.0,30.30,East,79,0.0,-999.0,61,-99.99,,,0.00,weatherlink.com 1.10,2013-01-25 15:19:00,
2013-01-25 10:35:00,68.5,54.0,30.30,NE,51,2.0,-999.0,61,-99.99,,,0.00,weatherlink.com 1.10,2013-01-25 15:35:00,
2013-01-25 10:49:00,70.3,55.0,30.30,East,86,0.0,-999.0,59,-99.99,,,0.00,weatherlink.com 1.10,2013-01-25 15:49:00,
2013-01-25 11:04:00,71.1,55.0,30.29,ESE,121,2.0,-999.0,57,-99.99,,,0.00,weatherlink.com 1.10,2013-01-25 16:04:00,
2013-01-25 11:19:00,71.9,55.0,30.29,NE,52,0.0,-999.0,55,-99.99,,,0.00,weatherlink.com 1.10,2013-01-25 16:19:00,
2013-01-25 11:34:00,72.7,54.0,30.28,NE,34,6.0,-999.0,53,-99.99,,,0.00,weatherlink.com 1.10,2013-01-25 16:34:00,
2013-01-25 11:49:00,73.5,55.0,30.27,NE,44,3.0,-999.0,53,-99.99,,,0.00,weatherlink.com 1.10,2013-01-25 16:49:00,
2013-01-25 12:04:00,74.0,56.0,30.27,NE,43,3.0,-999.0,53,-99.99,,,0.00,weatherlink.com 1.10,2013-01-25 17:04:00,
2013-01-25 12:19:00,75.2,57.0,30.26,South,169,1.0,-999.0,53,-99.99,,,0.00,weatherlink.com 1.10,2013-01-25 17:19:00,
2013-01-25 12:34:00,75.4,56.0,30.25,East,101,2.0,-999.0,52,-99.99,,,0.00,weatherlink.com 1.10,2013-01-25 17:34:00,
2013-01-25 12:49:00,76.5,57.0,30.24,ESE,121,0.0,-999.0,51,-99.99,,,0.00,weatherlink.com 1.10,2013-01-25 17:49:00,
2013-01-25 13:04:00,76.9,57.0,30.23,SSE,154,0.0,-999.0,51,-99.99,,,0.00,weatherlink.com 1.10,2013-01-25 18:04:00,
2013-01-25 13:19:00,77.3,57.0,30.22,East,92,1.0,-999.0,49,-99.99,,,0.00,weatherlink.com 1.10,2013-01-25 18:19:00,
2013-01-25 13:34:00,77.7,57.0,30.21,SE,136,4.0,-999.0,49,-99.99,,,0.00,weatherlink.com 1.10,2013-01-25 18:34:00,
2013-01-25 13:49:00,78.7,56.0,30.21,SSE,159,2.0,-999.0,46,-99.99,,,0.00,weatherlink.com 1.10,2013-01-25 18:49:00,
2013-01-25 14:05:00,80.2,59.0,30.20,SSW,205,0.0,-999.0,48,-99.99,,,0.00,weatherlink.com 1.10,2013-01-25 19:05:00,
2013-01-25 14:19:00,80.2,59.0,30.20,West,266,0.0,-999.0,48,-99.99,,,0.00,weatherlink.com 1.10,2013-01-25 19:19:00,
2013-01-25 14:34:00,79.7,59.0,30.19,WNW,301,1.0,-999.0,49,-99.99,,,0.00,weatherlink.com 1.10,2013-01-25 19:34:00,
2013-01-25 14:49:00,78.7,59.0,30.19,WSW,250,0.0,-999.0,51,-99.99,,,0.00,weatherlink.com 1.10,2013-01-25 19:49:00,
2013-01-25 15:04:00,77.6,59.0,30.19,SW,214,2.0,-999.0,53,-99.99,,,0.00,weatherlink.com 1.10,2013-01-25 20:04:00,
2013-01-25 15:19:00,76.8,58.0,30.19,WNW,294,1.0,-999.0,52,-99.99,,,0.00,weatherlink.com 1.10,2013-01-25 20:19:00,
2013-01-25 15:34:00,-999.0,-99.9,30.19,North,-999,-999.0,-999.0,-999,-99.99,,,0.00,weatherlink.com 1.10,2013-01-25 20:34:00,
2013-01-25 15:50:00,-999.0,-99.9,30.19,North,-999,-999.0,-999.0,-999,-99.99,,,0.00,weatherlink.com 1.10,2013-01-25 20:50:00,
2013-01-25 16:04:00,-999.0,-99.9,30.19,North,-999,-999.0,-999.0,-999,-99.99,,,0.00,weatherlink.com 1.10,2013-01-25 21:04:00,
2013-01-25 16:19:00,-999.0,-99.9,30.19,North,-999,-999.0,-999.0,-999,-99.99,,,0.00,weatherlink.com 1.10,2013-01-25 21:19:00,
2013-01-25 16:34:00,-999.0,-99.9,30.19,North,-999,-999.0,-999.0,-999,-99.99,,,0.00,weatherlink.com 1.10,2013-01-25 21:34:00,
2013-01-25 16:49:00,-999.0,-99.9,30.20,North,-999,-999.0,-999.0,-999,-99.99,,,0.00,weatherlink.com 1.10,2013-01-25 21:49:00,
2013-01-25 17:04:00,-999.0,-99.9,30.20,North,-999,-999.0,-999.0,-999,-99.99,,,0.00,weatherlink.com 1.10,2013-01-25 22:04:00,
2013-01-25 17:20:00,-999.0,-99.9,30.20,North,-999,-999.0,-999.0,-999,-99.99,,,0.00,weatherlink.com 1.10,2013-01-25 22:20:00,
2013-01-25 17:34:00,-999.0,-99.9,30.20,North,-999,-999.0,-999.0,-999,-99.99,,,0.00,weatherlink.com 1.10,2013-01-25 22:34:00,
2013-01-25 17:49:00,-999.0,-99.9,30.20,North,-999,-999.0,-999.0,-999,-99.99,,,0.00,weatherlink.com 1.10,2013-01-25 22:49:00,
2013-01-25 18:04:00,69.1,59.0,30.20,NW,315,0.0,-999.0,71,-99.99,,,0.00,weatherlink.com 1.10,2013-01-25 23:04:00,
2013-01-25 18:19:00,68.2,58.0,30.20,NW,315,0.0,-999.0,71,-99.99,,,0.00,weatherlink.com 1.10,2013-01-25 23:19:00,
2013-01-25 18:34:00,67.3,58.0,30.20,NW,317,0.0,-999.0,72,-99.99,,,0.00,weatherlink.com 1.10,2013-01-25 23:34:00,
2013-01-25 18:49:00,66.4,58.0,30.20,NW,317,0.0,-999.0,73,-99.99,,,0.00,weatherlink.com 1.10,2013-01-25 23:49:00,
2013-01-25 19:04:00,65.8,57.0,30.20,NW,317,0.0,-999.0,74,-99.99,,,0.00,weatherlink.com 1.10,2013-01-26 00:04:00,
2013-01-25 19:20:00,65.4,57.0,30.20,NW,317,0.0,-999.0,75,-99.99,,,0.00,weatherlink.com 1.10,2013-01-26 00:20:00,
2013-01-25 19:35:00,65.1,58.0,30.20,NW,317,0.0,-999.0,77,-99.99,,,0.00,weatherlink.com 1.10,2013-01-26 00:35:00,
2013-01-25 19:50:00,64.7,58.0,30.21,NW,317,0.0,-999.0,79,-99.99,,,0.00,weatherlink.com 1.10,2013-01-26 00:50:00,
2013-01-25 20:04:00,64.1,58.0,30.20,NW,317,0.0,-999.0,81,-99.99,,,0.00,weatherlink.com 1.10,2013-01-26 01:04:00,
2013-01-25 20:19:00,63.3,58.0,30.21,NW,317,0.0,-999.0,82,-99.99,,,0.00,weatherlink.com 1.10,2013-01-26 01:19:00,
2013-01-25 20:35:00,62.7,58.0,30.21,NW,317,0.0,-999.0,84,-99.99,,,0.00,weatherlink.com 1.10,2013-01-26 01:35:00,
2013-01-25 20:49:00,62.4,58.0,30.22,NW,317,0.0,-999.0,84,-99.99,,,0.00,weatherlink.com 1.10,2013-01-26 01:49:00,
2013-01-25 21:05:00,62.5,58.0,30.22,NW,317,0.0,-999.0,84,-99.99,,,0.00,weatherlink.com 1.10,2013-01-26 02:05:00,
2013-01-25 21:19:00,62.2,57.0,30.23,NW,317,0.0,-999.0,83,-99.99,,,0.00,weatherlink.com 1.10,2013-01-26 02:19:00,
2013-01-25 21:35:00,61.9,56.0,30.22,NW,318,0.0,-999.0,82,-99.99,,,0.00,weatherlink.com 1.10,2013-01-26 02:35:00,
2013-01-25 21:49:00,61.8,56.0,30.22,NW,318,0.0,-999.0,81,-99.99,,,0.00,weatherlink.com 1.10,2013-01-26 02:49:00,
2013-01-25 22:04:00,61.4,56.0,30.23,NW,318,0.0,-999.0,81,-99.99,,,0.00,weatherlink.com 1.10,2013-01-26 03:04:00,
2013-01-25 22:19:00,60.8,55.0,30.23,NW,318,0.0,-999.0,81,-99.99,,,0.00,weatherlink.com 1.10,2013-01-26 03:19:00,
2013-01-25 22:34:00,60.4,55.0,30.23,NW,318,0.0,-999.0,81,-99.99,,,0.00,weatherlink.com 1.10,2013-01-26 03:34:00,
2013-01-25 22:49:00,60.7,54.0,30.23,NW,318,0.0,-999.0,79,-99.99,,,0.00,weatherlink.com 1.10,2013-01-26 03:49:00,
2013-01-25 23:04:00,60.3,54.0,30.23,NW,318,0.0,-999.0,80,-99.99,,,0.00,weatherlink.com 1.10,2013-01-26 04:04:00,
2013-01-25 23:20:00,60.4,54.0,30.24,NW,318,0.0,-999.0,78,-99.99,,,0.00,weatherlink.com 1.10,2013-01-26 04:20:00,
2013-01-25 23:35:00,60.2,53.0,30.24,NW,318,0.0,-999.0,78,-99.99,,,0.00,weatherlink.com 1.10,2013-01-26 04:35:00,
2013-01-25 23:49:00,60.2,53.0,30.23,NW,318,0.0,-999.0,77,-99.99,,,0.00,weatherlink.com 1.10,2013-01-26 04:49:00,